sat.trackr.live / text

‹ back to catalog

STARLINK-4700

NORAD 53722 · 2022-107Y

PAYLOAD ACTIVE UNKNOWN

§ Identity

Operator
Country
US
Launch date
2022-09-05
Launch site
AFETR
Launch vehicle
Mass (kg)
RCS (m²)

Purposes: comms

External: N2YO · Heavens-Above · Gunter

§ Orbital elements

Epoch: 2026-05-25T01:21:49.761216Z

Period
95.44 min
Inclination
53.2141°
Eccentricity
0.0001535
Mean motion
15.08820212 rev/d
Perigee alt
538.7 km
Apogee alt
540.9 km
Semi-major
6,917.9 km
B*
2.1115e-4
RAAN
271.2040°
Arg perigee
89.5099°
Mean anomaly
270.6069°
Rev number
20,593

§ Raw data

STARLINK-47001 53722U 22107Y   26145.05682594  .00003072  00000+0  21115-3 0  99922 53722  53.2141 271.2040 0001535  89.5099 270.6069 15.08820212205935

JSON: /api/v1/satellites/53722 · /tle

For live sub-satellite position, see the globe view (requires WebGL).

§ Visibility from observer

Set your observer location to see the next 7 days of passes ≥ 10°. The values pass through the URL so the page stays shareable.

No JS? Fill the form by hand. The geolocation button needs JavaScript.